Weather History for Southend-On-Sea, United Kingdom

Change the Weather History Date:

Sunday, October 28, 2012

  Actual Average Record
Temperature  
Mean Temperature 42 °F -  
Max Temperature 48 °F 50 °F 64 °F (2005)
Min Temperature 35 °F 40 °F 30 °F (2003)
Degree Days  
Heating Degree Days 24    
Moisture  
Dew Point 39 °F    
Average Humidity 84    
Maximum Humidity 93    
Minimum Humidity 71    
Precipitation  
Precipitation 0.00 in - - ()
Sea Level Pressure  
Sea Level Pressure 29.95 in    
Wind  
Wind Speed 10 mph ()    
Max Wind Speed 15 mph    
Max Gust Speed -    
Visibility 6.2 miles    
Events Rain    
Averages and records for this station are not official NWS values.
T = Trace of Precipitation, MM = Missing Value Source: Averaged Metar Reports

Daily Weather History Graph

Daily Weather History Graph

Search for Another Location

Airport:

Trip Planner

Search our weather history database for the weather conditions in past years. The results will help you decide how hot, cold, wet, or windy it might be!

Date:

Astronomy

Oct. 28, 2012 Rise Set
Actual Time 6:44 AM GMT 4:36 PM GMT
Civil Twilight 6:09 AM GMT 5:11 PM GMT
Nautical Twilight 5:30 AM GMT 5:50 PM GMT
Astronomical Twilight 4:51 AM GMT 6:29 PM GMT
Moon 3:48 PM GMT (10/28) 5:18 AM GMT (10/28)
Length of Visible Light 11h 02m
Length of Day
9h 52m
Waxing Gibbous, 98% of the Moon is Illuminated
Oct 28
Waxing Gibbous
Oct 29
Full
Nov 7
Last Quarter
Nov 13
New
Nov 20
First Quarter

Hourly Weather History & Observations

Time (GMT) Temp. Windchill Dew Point Humidity Pressure Visibility Wind Dir Wind Speed Gust Speed Precip Events Conditions
12:50 AM 39.2 °F 32.0 °F 35.6 °F 87% 30.09 in - NNW 11.5 mph - N/A   Clear
1:50 AM 39.2 °F 32.5 °F 35.6 °F 87% 30.09 in - NW 10.4 mph - N/A   Clear
1:50 AM 37.4 °F 32.1 °F 33.8 °F 87% 30.09 in - NW 6.9 mph - N/A   Clear
2:50 AM 35.6 °F 29.2 °F 32.0 °F 87% 30.09 in - NW 8.1 mph - N/A   Clear
3:50 AM 35.6 °F 29.2 °F 32.0 °F 87% 30.09 in - WNW 8.1 mph - N/A   Clear
4:50 AM 35.6 °F 30.7 °F 32.0 °F 87% 30.06 in - West 5.8 mph - N/A   Clear
5:50 AM 35.6 °F 29.9 °F 32.0 °F 87% 30.04 in - WSW 6.9 mph - N/A   Clear
6:20 AM 35.6 °F 28.6 °F 32.0 °F 87% 30.04 in - WSW 9.2 mph - N/A   Clear
6:50 AM 35.6 °F 28.0 °F 32.0 °F 87% 30.04 in - SW 10.4 mph - N/A   Clear
7:20 AM 35.6 °F 29.2 °F 33.8 °F 93% 30.04 in - WSW 8.1 mph - N/A   Clear
7:50 AM 39.2 °F 34.2 °F 33.8 °F 81% 30.04 in - WSW 6.9 mph - N/A   Clear
8:20 AM 39.2 °F 32.5 °F 33.8 °F 81% 30.01 in - WSW 10.4 mph - N/A   Clear
8:50 AM 41.0 °F 34.3 °F 33.8 °F 76% 30.01 in - SW 11.5 mph - N/A   Clear
9:20 AM 42.8 °F 36.6 °F 35.6 °F 76% 30.01 in 6.2 mi SW 11.5 mph - N/A   Mostly Cloudy
9:50 AM 44.6 °F 39.2 °F 35.6 °F 71% 29.98 in 6.2 mi SW 10.4 mph - N/A   Mostly Cloudy
10:20 AM 44.6 °F 38.4 °F 37.4 °F 76% 29.98 in 6.2 mi SW 12.7 mph - N/A   Mostly Cloudy
10:50 AM 44.6 °F 38.8 °F 39.2 °F 81% 29.98 in 6.2 mi SW 11.5 mph - N/A   Light Drizzle
11:20 AM 44.6 °F 37.8 °F 39.2 °F 81% 29.95 in 6.2 mi SW 15.0 mph - N/A   Light Drizzle
11:50 AM 44.6 °F 37.8 °F 39.2 °F 81% 29.95 in 6.2 mi SW 15.0 mph - N/A   Light Drizzle
12:20 PM 44.6 °F 39.2 °F 41.0 °F 87% 29.95 in 6.2 mi SW 10.4 mph - N/A   Mostly Cloudy
12:50 PM 46.4 °F 40.1 °F 41.0 °F 81% 29.92 in 6.2 mi WSW 15.0 mph - N/A   Scattered Clouds
1:20 PM 46.4 °F 40.1 °F 41.0 °F 81% 29.92 in 6.2 mi WSW 15.0 mph - N/A   Partly Cloudy
1:50 PM 46.4 °F 40.4 °F 41.0 °F 81% 29.92 in 6.2 mi SW 13.8 mph - N/A   Mostly Cloudy
2:20 PM 48.2 °F - 42.8 °F 82% 29.89 in 6.2 mi SW 12.7 mph - N/A   Partly Cloudy
2:50 PM 46.4 °F 40.4 °F 42.8 °F 87% 29.89 in 6.2 mi SW 13.8 mph - N/A   Partly Cloudy
3:20 PM 48.2 °F - 42.8 °F 82% 29.89 in 6.2 mi SW 13.8 mph - N/A   Scattered Clouds
3:50 PM 48.2 °F - 42.8 °F 82% 29.89 in 6.2 mi SW 11.5 mph - N/A   Scattered Clouds
4:20 PM 48.2 °F - 42.8 °F 82% 29.89 in 6.2 mi SW 12.7 mph - N/A   Scattered Clouds
4:50 PM 48.2 °F - 42.8 °F 82% 29.89 in 6.2 mi SSW 11.5 mph - N/A   Mostly Cloudy
5:20 PM 48.2 °F - 42.8 °F 82% 29.89 in 6.2 mi SSW 10.4 mph - N/A   Scattered Clouds
5:50 PM 46.4 °F 42.4 °F 42.8 °F 87% 29.89 in 6.2 mi SW 8.1 mph - N/A   Partly Cloudy
6:20 PM 48.2 °F - 42.8 °F 82% 29.89 in 6.2 mi SSW 9.2 mph - N/A   Partly Cloudy
6:50 PM 48.2 °F - 42.8 °F 82% 29.89 in 6.2 mi SSW 9.2 mph - N/A   Partly Cloudy
7:20 PM 46.4 °F 41.9 °F 42.8 °F 87% 29.89 in 6.2 mi SSW 9.2 mph - N/A Rain Light Rain
7:50 PM 46.4 °F 41.5 °F 42.8 °F 87% 29.89 in 6.2 mi SW 10.4 mph - N/A Rain Light Rain
8:20 PM 48.2 °F - 44.6 °F 87% 29.86 in 6.2 mi SW 10.4 mph - N/A Rain Light Rain
8:50 PM 46.4 °F 41.5 °F 44.6 °F 93% 29.86 in 6.2 mi SSW 10.4 mph - N/A Rain Light Rain
9:20 PM 46.4 °F 41.1 °F 44.6 °F 93% 29.86 in 6.2 mi SW 11.5 mph - N/A Rain Light Rain
9:50 PM 46.4 °F 40.7 °F 42.8 °F 87% 29.86 in 6.2 mi SW 12.7 mph - N/A Rain Light Rain
10:20 PM 46.4 °F 41.1 °F 42.8 °F 87% 29.86 in 6.2 mi SW 11.5 mph - N/A Rain Light Rain
10:50 PM 46.4 °F 41.1 °F 44.6 °F 93% 29.86 in 6.2 mi SW 11.5 mph - N/A Rain Light Rain